| time (UTC) | temp F | wind direction | speed MPH | gust MPH | rain 1hr in | rain 24hr in | rain mn in | humidity % | barometer mb |
| 20260506031624 | 71 | 152 | 0.0 | 3.0 | 0.00 | 0.00 | 0.00 | 58 | 1008.8 |
| 20260506031344 | 71 | 162 | 0.0 | 3.0 | 0.00 | 0.00 | 0.00 | 58 | 1008.8 |
| 20260506030849 | 72 | 146 | 0.0 | 3.0 | 0.00 | 0.00 | 0.00 | 57 | 1008.8 |
| 20260506030125 | 72 | 166 | 0.0 | 3.0 | 0.00 | 0.00 | 0.00 | 57 | 1008.7 |
| 20260506025621 | 72 | 153 | 0.0 | 2.0 | 0.00 | 0.00 | 0.00 | 57 | 1008.6 |
| 20260506025120 | 72 | 159 | 0.0 | 2.0 | 0.00 | 0.00 | 0.00 | 57 | 1008.8 |
| 20260506024620 | 72 | 160 | 0.0 | 2.0 | 0.00 | 0.00 | 0.00 | 56 | 1008.8 |
| 20260506024330 | 72 | 150 | 0.0 | 2.0 | 0.00 | 0.00 | 0.00 | 56 | 1008.8 |
| 20260506024216 | 72 | 164 | 0.0 | 2.0 | 0.00 | 0.00 | 0.00 | 56 | 1008.8 |
| 20260506023341 | 73 | 155 | 0.0 | 2.0 | 0.00 | 0.00 | 0.00 | 56 | 1008.9 |
| 20260506022620 | 73 | 188 | 0.0 | 1.0 | 0.00 | 0.00 | 0.00 | 55 | 1008.9 |
| 20260506022120 | 73 | 218 | 0.0 | 1.0 | 0.00 | 0.00 | 0.00 | 55 | 1008.9 |
| 20260506021844 | 73 | 234 | 0.0 | 0.0 | 0.00 | 0.00 | 0.00 | 55 | 1008.8 |
| 20260506021337 | 73 | 160 | 0.0 | 1.0 | 0.00 | 0.00 | 0.00 | 54 | 1008.9 |
| 20260506020616 | 73 | 160 | 0.0 | 1.0 | 0.00 | 0.00 | 0.00 | 54 | 1008.8 |
| 20260506020117 | 73 | 231 | 0.0 | 1.0 | 0.00 | 0.00 | 0.00 | 54 | 1008.8 |
| 20260506015615 | 73 | 148 | 0.0 | 1.0 | 0.00 | 0.00 | 0.00 | 54 | 1008.8 |
| 20260506015113 | 73 | 174 | 0.0 | 1.0 | 0.00 | 0.00 | 0.00 | 53 | 1008.7 |
| 20260506014613 | 74 | 214 | 0.0 | 2.0 | 0.00 | 0.00 | 0.00 | 53 | 1008.5 |
| 20260506014111 | 74 | 192 | 0.0 | 2.0 | 0.00 | 0.00 | 0.00 | 53 | 1008.5 |
| 20260506013612 | 74 | 155 | 0.0 | 2.0 | 0.00 | 0.00 | 0.00 | 52 | 1008.5 |
| 20260506013112 | 74 | 160 | 0.0 | 2.0 | 0.00 | 0.00 | 0.00 | 52 | 1008.4 |
| 20260506012608 | 74 | 161 | 0.0 | 2.0 | 0.00 | 0.00 | 0.00 | 52 | 1008.4 |
| 20260506012105 | 74 | 160 | 0.0 | 2.0 | 0.00 | 0.00 | 0.00 | 52 | 1008.3 |
| 20260506011607 | 74 | 156 | 0.0 | 2.0 | 0.00 | 0.00 | 0.00 | 51 | 1008.3 |
| 20260506011106 | 74 | 170 | 0.0 | 6.0 | 0.00 | 0.00 | 0.00 | 51 | 1008.2 |
| 20260506010605 | 74 | 156 | 0.0 | 6.0 | 0.00 | 0.00 | 0.00 | 51 | 1008.2 |
| 20260506010327 | 75 | 155 | 0.0 | 4.0 | 0.00 | 0.00 | 0.00 | 50 | 1008.2 |
| 20260506005604 | 75 | 159 | 0.0 | 4.0 | 0.00 | 0.00 | 0.00 | 50 | 1008.2 |
| 20260506005104 | 75 | 162 | 0.0 | 2.0 | 0.00 | 0.00 | 0.00 | 50 | 1008.1 |
| 20260506004604 | 75 | 160 | 0.0 | 1.0 | 0.00 | 0.00 | 0.00 | 50 | 1008.1 |
| 20260506004326 | 75 | 160 | 0.0 | 1.0 | 0.00 | 0.00 | 0.00 | 49 | 1008.0 |
| 20260506003601 | 75 | 168 | 0.0 | 3.0 | 0.00 | 0.00 | 0.00 | 49 | 1007.9 |
| 20260506003316 | 76 | 176 | 0.0 | 3.0 | 0.00 | 0.00 | 0.00 | 49 | 1007.9 |
| 20260506002548 | 76 | 185 | 0.0 | 2.0 | 0.00 | 0.00 | 0.00 | 48 | 1008.0 |
| 20260506002043 | 76 | 158 | 0.0 | 2.0 | 0.00 | 0.00 | 0.00 | 48 | 1007.9 |
| 20260506001537 | 76 | 141 | 0.0 | 1.0 | 0.00 | 0.00 | 0.00 | 48 | 1007.8 |
| 20260506001031 | 76 | 129 | 0.0 | 3.0 | 0.00 | 0.00 | 0.00 | 47 | 1007.8 |
| 20260506000525 | 77 | 147 | 0.0 | 3.0 | 0.00 | 0.00 | 0.00 | 47 | 1007.8 |
| 20260506000018 | 77 | 155 | 0.0 | 2.0 | 0.00 | 0.00 | 0.00 | 46 | 1007.7 |
| 20260505235512 | 77 | 160 | 0.0 | 2.0 | 0.00 | 0.00 | 0.00 | 46 | 1007.7 |
| 20260505235007 | 77 | 214 | 1.0 | 3.0 | 0.00 | 0.00 | 0.00 | 46 | 1007.7 |
| 20260505234501 | 78 | 229 | 0.0 | 3.0 | 0.00 | 0.00 | 0.00 | 45 | 1007.8 |
| 20260505233955 | 78 | 159 | 0.0 | 2.0 | 0.00 | 0.00 | 0.00 | 45 | 1007.6 |
| 20260505233449 | 78 | 46 | 0.0 | 2.0 | 0.00 | 0.00 | 0.00 | 44 | 1007.6 |
| 20260505232942 | 78 | 163 | 0.0 | 2.0 | 0.00 | 0.00 | 0.00 | 44 | 1007.6 |
| 20260505232437 | 78 | 153 | 0.0 | 2.0 | 0.00 | 0.00 | 0.00 | 44 | 1007.6 |
| 20260505231932 | 78 | 167 | 0.0 | 2.0 | 0.00 | 0.00 | 0.00 | 43 | 1007.7 |
| 20260505231425 | 79 | 226 | 0.0 | 2.0 | 0.00 | 0.00 | 0.00 | 43 | 1007.6 |
| 20260505231141 | 79 | 165 | 0.0 | 3.0 | 0.00 | 0.00 | 0.00 | 42 | 1007.6 |
| 20260505230413 | 79 | 329 | 1.0 | 6.0 | 0.00 | 0.00 | 0.00 | 41 | 1007.6 |
| 20260505230125 | 80 | 179 | 1.0 | 6.0 | 0.00 | 0.00 | 0.00 | 41 | 1007.6 |
| 20260505225624 | 80 | 250 | 1.0 | 4.0 | 0.00 | 0.00 | 0.00 | 41 | 1007.6 |
| 20260505225122 | 80 | 214 | 1.0 | 3.0 | 0.00 | 0.00 | 0.00 | 40 | 1007.5 |
| 20260505224622 | 81 | 168 | 1.0 | 3.0 | 0.00 | 0.00 | 0.00 | 40 | 1007.6 |
| 20260505223842 | 81 | 151 | 1.0 | 3.0 | 0.00 | 0.00 | 0.00 | 39 | 1007.7 |
| 20260505223336 | 82 | 160 | 1.0 | 3.0 | 0.00 | 0.00 | 0.00 | 38 | 1007.6 |
| 20260505222831 | 82 | 354 | 1.0 | 3.0 | 0.00 | 0.00 | 0.00 | 38 | 1007.7 |
| 20260505222326 | 83 | 46 | 0.0 | 5.0 | 0.00 | 0.00 | 0.00 | 37 | 1007.6 |
| 20260505221819 | 83 | 186 | 1.0 | 5.0 | 0.00 | 0.00 | 0.00 | 37 | 1007.6 |
| 20260505221313 | 83 | 194 | 1.0 | 4.0 | 0.00 | 0.00 | 0.00 | 36 | 1007.5 |
| 20260505220806 | 83 | 156 | 1.0 | 6.0 | 0.00 | 0.00 | 0.00 | 35 | 1007.5 |
| 20260505215754 | 84 | 270 | 1.0 | 4.0 | 0.00 | 0.00 | 0.00 | 33 | 1007.4 |
| 20260505215515 | 83 | 222 | 1.0 | 4.0 | 0.00 | 0.00 | 0.00 | 34 | 1007.5 |
| 20260505214743 | 83 | 236 | 1.0 | 4.0 | 0.00 | 0.00 | 0.00 | 32 | 1007.4 |
| 20260505214501 | 83 | 123 | 1.0 | 6.0 | 0.00 | 0.00 | 0.00 | 33 | 1007.3 |
| 20260505213955 | 83 | 215 | 1.0 | 6.0 | 0.00 | 0.00 | 0.00 | 31 | 1007.3 |
| 20260505213225 | 84 | 45 | 1.0 | 6.0 | 0.00 | 0.00 | 0.00 | 31 | 1007.4 |
| 20260505212719 | 85 | 206 | 1.0 | 7.0 | 0.00 | 0.00 | 0.00 | 30 | 1007.3 |
| 20260505212433 | 85 | 158 | 1.0 | 7.0 | 0.00 | 0.00 | 0.00 | 31 | 1007.3 |
| 20260505211932 | 85 | 196 | 1.0 | 4.0 | 0.00 | 0.00 | 0.00 | 32 | 1007.3 |
| 20260505211210 | 85 | 153 | 2.0 | 6.0 | 0.00 | 0.00 | 0.00 | 31 | 1007.4 |
| 20260505210710 | 85 | 110 | 2.0 | 7.0 | 0.00 | 0.00 | 0.00 | 29 | 1007.4 |
| 20260505210207 | 86 | 98 | 1.0 | 7.0 | 0.00 | 0.00 | 0.00 | 29 | 1007.5 |
| 20260505205707 | 85 | 205 | 1.0 | 6.0 | 0.00 | 0.00 | 0.00 | 29 | 1007.5 |
| 20260505205207 | 85 | 162 | 1.0 | 6.0 | 0.00 | 0.00 | 0.00 | 29 | 1007.4 |
| 20260505204706 | 85 | 238 | 2.0 | 7.0 | 0.00 | 0.00 | 0.00 | 30 | 1007.4 |
| 20260505204208 | 86 | 169 | 2.0 | 7.0 | 0.00 | 0.00 | 0.00 | 27 | 1007.4 |
| 20260505203705 | 87 | 193 | 2.0 | 5.0 | 0.00 | 0.00 | 0.00 | 28 | 1007.2 |
| 20260505203205 | 87 | 223 | 1.0 | 5.0 | 0.00 | 0.00 | 0.00 | 28 | 1007.4 |
| 20260505202710 | 87 | 165 | 1.0 | 4.0 | 0.00 | 0.00 | 0.00 | 27 | 1007.4 |
| 20260505202206 | 87 | 162 | 1.0 | 4.0 | 0.00 | 0.00 | 0.00 | 28 | 1007.2 |
| 20260505201705 | 87 | 209 | 2.0 | 6.0 | 0.00 | 0.00 | 0.00 | 28 | 1007.4 |
| 20260505201206 | 87 | 156 | 2.0 | 6.0 | 0.00 | 0.00 | 0.00 | 28 | 1007.4 |
| 20260505200705 | 88 | 149 | 1.0 | 6.0 | 0.00 | 0.00 | 0.00 | 28 | 1007.3 |
| 20260505200204 | 88 | 162 | 2.0 | 6.0 | 0.00 | 0.00 | 0.00 | 29 | 1007.5 |
| 20260505195706 | 88 | 203 | 2.0 | 5.0 | 0.00 | 0.00 | 0.00 | 29 | 1007.5 |
| 20260505195420 | 89 | 85 | 1.0 | 7.0 | 0.00 | 0.00 | 0.00 | 28 | 1007.6 |
| 20260505194701 | 89 | 154 | 1.0 | 7.0 | 0.00 | 0.00 | 0.00 | 29 | 1007.6 |
| 20260505194159 | 89 | 208 | 1.0 | 6.0 | 0.00 | 0.00 | 0.00 | 28 | 1007.7 |
| 20260505193700 | 89 | 214 | 1.0 | 3.0 | 0.00 | 0.00 | 0.00 | 29 | 1007.8 |
| 20260505193157 | 89 | 39 | 1.0 | 5.0 | 0.00 | 0.00 | 0.00 | 28 | 1007.8 |
| 20260505192657 | 88 | 158 | 2.0 | 5.0 | 0.00 | 0.00 | 0.00 | 29 | 1007.8 |
| 20260505192157 | 88 | 195 | 2.0 | 5.0 | 0.00 | 0.00 | 0.00 | 28 | 1007.9 |
| 20260505191658 | 88 | 156 | 1.0 | 5.0 | 0.00 | 0.00 | 0.00 | 29 | 1008.0 |
| 20260505191156 | 88 | 165 | 1.0 | 5.0 | 0.00 | 0.00 | 0.00 | 29 | 1008.0 |
| 20260505190659 | 88 | 214 | 1.0 | 4.0 | 0.00 | 0.00 | 0.00 | 29 | 1008.1 |
| 20260505190159 | 88 | 152 | 1.0 | 7.0 | 0.00 | 0.00 | 0.00 | 30 | 1008.2 |
| 20260505185656 | 88 | 174 | 2.0 | 7.0 | 0.00 | 0.00 | 0.00 | 31 | 1008.3 |
| 20260505185159 | 87 | 75 | 2.0 | 7.0 | 0.00 | 0.00 | 0.00 | 31 | 1008.4 |
| 20260505184658 | 87 | 346 | 2.0 | 5.0 | 0.00 | 0.00 | 0.00 | 30 | 1008.5 |
| 20260505184157 | 88 | 159 | 2.0 | 8.0 | 0.00 | 0.00 | 0.00 | 30 | 1008.5 |
| 20260505183656 | 87 | 163 | 2.0 | 9.0 | 0.00 | 0.00 | 0.00 | 31 | 1008.7 |
| 20260505183157 | 87 | 231 | 2.0 | 9.0 | 0.00 | 0.00 | 0.00 | 29 | 1008.7 |
| 20260505182656 | 88 | 226 | 2.0 | 8.0 | 0.00 | 0.00 | 0.00 | 31 | 1008.7 |
| 20260505182158 | 87 | 257 | 2.0 | 8.0 | 0.00 | 0.00 | 0.00 | 29 | 1008.8 |
| 20260505181658 | 87 | 171 | 2.0 | 11.0 | 0.00 | 0.00 | 0.00 | 30 | 1008.9 |
| 20260505181156 | 86 | 168 | 2.0 | 11.0 | 0.00 | 0.00 | 0.00 | 29 | 1008.8 |
| 20260505180658 | 87 | 265 | 2.0 | 5.0 | 0.00 | 0.00 | 0.00 | 28 | 1009.0 |
| 20260505180652 | 87 | 161 | 1.0 | 5.0 | 0.00 | 0.00 | 0.00 | 31 | 1009.1 |
| 20260505175927 | 86 | 322 | 2.0 | 6.0 | 0.00 | 0.00 | 0.00 | 30 | 1009.1 |
| 20260505175157 | 86 | 211 | 2.0 | 6.0 | 0.00 | 0.00 | 0.00 | 32 | 1009.2 |
| 20260505174657 | 86 | 231 | 1.0 | 6.0 | 0.00 | 0.00 | 0.00 | 32 | 1009.1 |
| 20260505174157 | 85 | 172 | 2.0 | 12.0 | 0.00 | 0.00 | 0.00 | 32 | 1009.1 |
| 20260505173657 | 85 | 232 | 2.0 | 12.0 | 0.00 | 0.00 | 0.00 | 35 | 1009.1 |
| 20260505173157 | 85 | 148 | 2.0 | 8.0 | 0.00 | 0.00 | 0.00 | 34 | 1009.1 |
| 20260505173142 | 86 | 239 | 1.0 | 8.0 | 0.00 | 0.00 | 0.00 | 36 | 1009.3 |
| 20260505172158 | 86 | 233 | 1.0 | 4.0 | 0.00 | 0.00 | 0.00 | 36 | 1009.4 |
| 20260505171656 | 85 | 190 | 1.0 | 5.0 | 0.00 | 0.00 | 0.00 | 37 | 1009.4 |
| 20260505171414 | 84 | 174 | 2.0 | 10.0 | 0.00 | 0.00 | 0.00 | 39 | 1009.4 |
| 20260505170656 | 84 | 210 | 1.0 | 10.0 | 0.00 | 0.00 | 0.00 | 37 | 1009.5 |
| 20260505170157 | 84 | 224 | 1.0 | 7.0 | 0.00 | 0.00 | 0.00 | 38 | 1009.7 |
| 20260505165925 | 85 | 145 | 1.0 | 5.0 | 0.00 | 0.00 | 0.00 | 39 | 1009.6 |
| 20260505165156 | 85 | 231 | 1.0 | 3.0 | 0.00 | 0.00 | 0.00 | 40 | 1009.7 |
| 20260505164656 | 84 | 191 | 1.0 | 7.0 | 0.00 | 0.00 | 0.00 | 41 | 1009.6 |
| 20260505164157 | 83 | 179 | 1.0 | 7.0 | 0.00 | 0.00 | 0.00 | 41 | 1009.7 |
| 20260505163658 | 83 | 143 | 1.0 | 5.0 | 0.00 | 0.00 | 0.00 | 41 | 1009.7 |
| 20260505163157 | 83 | 48 | 1.0 | 3.0 | 0.00 | 0.00 | 0.00 | 40 | 1009.8 |
| 20260505162658 | 82 | 12 | 1.0 | 3.0 | 0.00 | 0.00 | 0.00 | 43 | 1009.8 |
| 20260505162154 | 81 | 311 | 0.0 | 3.0 | 0.00 | 0.00 | 0.00 | 45 | 1009.9 |
| 20260505161650 | 80 | 162 | 1.0 | 5.0 | 0.00 | 0.00 | 0.00 | 44 | 1009.9 |
| 20260505161151 | 80 | 127 | 1.0 | 5.0 | 0.00 | 0.00 | 0.00 | 46 | 1010.2 |
| 20260505160651 | 79 | 195 | 1.0 | 4.0 | 0.00 | 0.00 | 0.00 | 47 | 1010.3 |
| 20260505160150 | 79 | 146 | 1.0 | 4.0 | 0.00 | 0.00 | 0.00 | 47 | 1010.3 |
| 20260505153144 | 75 | 193 | 0.0 | 4.0 | 0.00 | 0.00 | 0.00 | 53 | 1010.5 |
| 20260505153132 | 75 | 39 | 0.0 | 4.0 | 0.00 | 0.00 | 0.00 | 52 | 1010.5 |
| 20260505152147 | 74 | 155 | 0.0 | 1.0 | 0.00 | 0.00 | 0.00 | 54 | 1010.6 |
| 20260505151643 | 74 | 210 | 0.0 | 2.0 | 0.00 | 0.00 | 0.00 | 54 | 1010.5 |
| 20260505151142 | 73 | 153 | 0.0 | 2.0 | 0.00 | 0.00 | 0.00 | 55 | 1010.4 |
| 20260505150641 | 73 | 334 | 0.0 | 1.0 | 0.00 | 0.00 | 0.00 | 55 | 1010.5 |
| 20260505150138 | 73 | 147 | 0.0 | 3.0 | 0.00 | 0.00 | 0.00 | 55 | 1010.6 |
| 20260505140635 | 69 | 4 | 0.0 | 3.0 | 0.00 | 0.00 | 0.00 | 61 | 1010.5 |
| 20260505140133 | 68 | 308 | 0.0 | 2.0 | 0.00 | 0.00 | 0.00 | 61 | 1010.5 |
| 20260505125038 | 63 | 195 | 0.0 | 3.0 | 0.00 | 0.00 | 0.00 | 68 | 1010.6 |
| 20260505124532 | 63 | 221 | 0.0 | 5.0 | 0.00 | 0.00 | 0.00 | 69 | 1010.7 |
| 20260505124249 | 63 | 352 | 1.0 | 5.0 | 0.00 | 0.00 | 0.00 | 69 | 1010.8 |
| 20260505123520 | 63 | 236 | 1.0 | 4.0 | 0.00 | 0.00 | 0.00 | 69 | 1010.8 |
| 20260505123014 | 63 | 202 | 1.0 | 8.0 | 0.00 | 0.00 | 0.00 | 69 | 1010.8 |
| 20260505122507 | 62 | 193 | 1.0 | 8.0 | 0.00 | 0.00 | 0.00 | 70 | 1010.7 |
| 20260505122002 | 62 | 80 | 1.0 | 7.0 | 0.00 | 0.00 | 0.00 | 70 | 1010.7 |
| 20260505121455 | 62 | 140 | 1.0 | 5.0 | 0.00 | 0.00 | 0.00 | 71 | 1010.6 |
| 20260505121210 | 62 | 25 | 1.0 | 5.0 | 0.00 | 0.00 | 0.00 | 71 | 1010.5 |
| 20260505120443 | 62 | 221 | 1.0 | 4.0 | 0.00 | 0.00 | 0.00 | 71 | 1010.4 |
| 20260505120205 | 62 | 226 | 1.0 | 4.0 | 0.00 | 0.00 | 0.00 | 72 | 1010.4 |
| 20260505115658 | 62 | 28 | 1.0 | 4.0 | 0.00 | 0.00 | 0.00 | 72 | 1010.4 |
| 20260505114935 | 61 | 219 | 0.0 | 3.0 | 0.00 | 0.00 | 0.00 | 72 | 1010.3 |
| 20260505114435 | 61 | 50 | 0.0 | 4.0 | 0.00 | 0.00 | 0.00 | 73 | 1010.2 |
| 20260505113931 | 61 | 72 | 0.0 | 4.0 | 0.00 | 0.00 | 0.00 | 73 | 1010.2 |
| 20260505113700 | 61 | 205 | 0.0 | 1.0 | 0.00 | 0.00 | 0.00 | 74 | 1010.2 |
| 20260505112932 | 61 | 86 | 0.0 | 3.0 | 0.00 | 0.00 | 0.00 | 74 | 1010.1 |
| 20260505112432 | 60 | 47 | 0.0 | 3.0 | 0.00 | 0.00 | 0.00 | 75 | 1010.0 |
| 20260505111932 | 60 | 239 | 0.0 | 4.0 | 0.00 | 0.00 | 0.00 | 75 | 1010.0 |
| 20260505111658 | 60 | 11 | 0.0 | 4.0 | 0.00 | 0.00 | 0.00 | 75 | 1010.0 |
| 20260505110932 | 60 | 145 | 0.0 | 1.0 | 0.00 | 0.00 | 0.00 | 75 | 1009.9 |
| 20260505110434 | 60 | 120 | 0.0 | 1.0 | 0.00 | 0.00 | 0.00 | 75 | 1009.9 |
| 20260505101925 | 60 | 211 | 0.0 | 1.0 | 0.00 | 0.00 | 0.00 | 73 | 1009.5 |
| 20260505101647 | 60 | 193 | 0.0 | 1.0 | 0.00 | 0.00 | 0.00 | 73 | 1009.6 |
| 20260505100924 | 60 | 115 | 0.0 | 1.0 | 0.00 | 0.00 | 0.00 | 73 | 1009.5 |
| 20260505100423 | 60 | 22 | 0.0 | 2.0 | 0.00 | 0.00 | 0.00 | 72 | 1009.5 |
| 20260505100149 | 60 | 65 | 0.0 | 2.0 | 0.00 | 0.00 | 0.00 | 72 | 1009.5 |
| 20260505095425 | 61 | 34 | 0.0 | 2.0 | 0.00 | 0.00 | 0.00 | 72 | 1009.5 |
| 20260505094923 | 61 | 26 | 0.0 | 2.0 | 0.00 | 0.00 | 0.00 | 71 | 1009.6 |
| 20260505094425 | 61 | 214 | 0.0 | 1.0 | 0.00 | 0.00 | 0.00 | 71 | 1009.5 |
| 20260505093923 | 61 | 214 | 0.0 | 4.0 | 0.00 | 0.00 | 0.00 | 71 | 1009.4 |
| 20260505093423 | 61 | 293 | 0.0 | 4.0 | 0.00 | 0.00 | 0.00 | 70 | 1009.4 |
| 20260505092922 | 61 | 224 | 0.0 | 1.0 | 0.00 | 0.00 | 0.00 | 70 | 1009.4 |
| 20260505092420 | 62 | 220 | 0.0 | 1.0 | 0.00 | 0.00 | 0.00 | 70 | 1009.4 |
| 20260505091920 | 62 | 248 | 0.0 | 3.0 | 0.00 | 0.00 | 0.00 | 70 | 1009.4 |
| 20260505091644 | 62 | 212 | 0.0 | 3.0 | 0.00 | 0.00 | 0.00 | 70 | 1009.4 |
| 20260505090919 | 62 | 139 | 0.0 | 2.0 | 0.00 | 0.00 | 0.00 | 69 | 1009.3 |
| 20260505090419 | 62 | 155 | 0.0 | 2.0 | 0.00 | 0.00 | 0.00 | 69 | 1009.3 |
| 20260505085918 | 62 | 200 | 0.0 | 3.0 | 0.00 | 0.00 | 0.00 | 69 | 1009.3 |
| 20260505085418 | 62 | 39 | 0.0 | 3.0 | 0.00 | 0.00 | 0.00 | 69 | 1009.3 |
| 20260505084917 | 62 | 0 | 0.0 | 3.0 | 0.00 | 0.00 | 0.00 | 69 | 1009.3 |
| 20260505084419 | 62 | 98 | 0.0 | 3.0 | 0.00 | 0.00 | 0.00 | 69 | 1009.3 |
| 20260505083921 | 62 | 356 | 0.0 | 2.0 | 0.00 | 0.00 | 0.00 | 68 | 1009.4 |
| 20260505083421 | 62 | 212 | 0.0 | 2.0 | 0.00 | 0.00 | 0.00 | 68 | 1009.3 |
| 20260505082921 | 63 | 200 | 0.0 | 2.0 | 0.00 | 0.00 | 0.00 | 68 | 1009.2 |
| 20260505082422 | 63 | 199 | 0.0 | 2.0 | 0.00 | 0.00 | 0.00 | 68 | 1009.3 |
| 20260505081917 | 62 | 204 | 0.0 | 2.0 | 0.00 | 0.00 | 0.00 | 68 | 1009.3 |
| 20260505081643 | 62 | 59 | 0.0 | 2.0 | 0.00 | 0.00 | 0.00 | 68 | 1009.3 |
| 20260505080917 | 62 | 147 | 0.0 | 2.0 | 0.00 | 0.00 | 0.00 | 68 | 1009.3 |
| 20260505080414 | 62 | 204 | 0.0 | 2.0 | 0.00 | 0.00 | 0.00 | 68 | 1009.2 |
| 20260505080136 | 62 | 209 | 0.0 | 2.0 | 0.00 | 0.00 | 0.00 | 68 | 1009.4 |
| 20260505075413 | 62 | 223 | 0.0 | 1.0 | 0.00 | 0.00 | 0.00 | 67 | 1009.3 |
| 20260505074913 | 62 | 177 | 0.0 | 1.0 | 0.00 | 0.00 | 0.00 | 67 | 1009.3 |
| 20260505074634 | 62 | 143 | 0.0 | 1.0 | 0.00 | 0.00 | 0.00 | 67 | 1009.3 |
| 20260505073915 | 62 | 202 | 0.0 | 1.0 | 0.00 | 0.00 | 0.00 | 66 | 1009.3 |
| 20260505073414 | 62 | 1 | 0.0 | 3.0 | 0.00 | 0.00 | 0.00 | 66 | 1009.2 |
| 20260505072915 | 62 | 307 | 0.0 | 3.0 | 0.00 | 0.00 | 0.00 | 66 | 1009.1 |
| 20260505072414 | 62 | 150 | 0.0 | 1.0 | 0.00 | 0.00 | 0.00 | 65 | 1009.0 |
| 20260505071914 | 63 | 194 | 0.0 | 1.0 | 0.00 | 0.00 | 0.00 | 65 | 1009.0 |
| 20260505071413 | 63 | 72 | 0.0 | 2.0 | 0.00 | 0.00 | 0.00 | 64 | 1009.0 |
| 20260505070913 | 63 | 4 | 0.0 | 2.0 | 0.00 | 0.00 | 0.00 | 64 | 1009.0 |
| 20260505070414 | 63 | 217 | 0.0 | 2.0 | 0.00 | 0.00 | 0.00 | 63 | 1008.9 |
| 20260505065914 | 63 | 222 | 0.0 | 2.0 | 0.00 | 0.00 | 0.00 | 63 | 1008.9 |
| 20260505065413 | 63 | 19 | 0.0 | 2.0 | 0.00 | 0.00 | 0.00 | 63 | 1008.9 |
| 20260505065142 | 63 | 166 | 0.0 | 2.0 | 0.00 | 0.00 | 0.00 | 63 | 1008.9 |
| 20260505064414 | 63 | 218 | 0.0 | 2.0 | 0.00 | 0.00 | 0.00 | 63 | 1009.0 |
| 20260505063912 | 63 | 205 | 0.0 | 2.0 | 0.00 | 0.00 | 0.00 | 62 | 1008.9 |
| 20260505063411 | 63 | 109 | 0.0 | 2.0 | 0.00 | 0.00 | 0.00 | 62 | 1008.8 |
| 20260505062909 | 63 | 169 | 0.0 | 2.0 | 0.00 | 0.00 | 0.00 | 62 | 1008.9 |
| 20260505062408 | 63 | 226 | 0.0 | 2.0 | 0.00 | 0.00 | 0.00 | 61 | 1008.8 |
| 20260505061910 | 63 | 208 | 0.0 | 2.0 | 0.00 | 0.00 | 0.00 | 61 | 1008.8 |
| 20260505061405 | 63 | 228 | 0.0 | 2.0 | 0.00 | 0.00 | 0.00 | 61 | 1008.7 |
| 20260505061129 | 63 | 177 | 0.0 | 2.0 | 0.00 | 0.00 | 0.00 | 61 | 1008.8 |
| 20260505060405 | 63 | 248 | 0.0 | 2.0 | 0.00 | 0.00 | 0.00 | 60 | 1008.9 |
| 20260505060125 | 63 | 240 | 0.0 | 2.0 | 0.00 | 0.00 | 0.00 | 60 | 1009.0 |
| 20260505055620 | 63 | 152 | 0.0 | 1.0 | 0.00 | 0.00 | 0.00 | 60 | 1008.9 |
| 20260505055114 | 63 | 217 | 0.0 | 2.0 | 0.00 | 0.00 | 0.00 | 59 | 1008.9 |
| 20260505054954 | 63 | 173 | 0.0 | 1.0 | 0.00 | 0.00 | 0.00 | 59 | 1009.0 |
| 20260505053854 | 64 | 207 | 0.0 | 2.0 | 0.00 | 0.00 | 0.00 | 58 | 1009.0 |
| 20260505053352 | 64 | 180 | 0.0 | 2.0 | 0.00 | 0.00 | 0.00 | 58 | 1008.9 |
| 20260505052850 | 64 | 224 | 0.0 | 2.0 | 0.00 | 0.00 | 0.00 | 57 | 1008.9 |
| 20260505052353 | 64 | 167 | 0.0 | 1.0 | 0.00 | 0.00 | 0.00 | 57 | 1008.9 |
| 20260505051847 | 64 | 159 | 0.0 | 1.0 | 0.00 | 0.00 | 0.00 | 56 | 1008.9 |
| 20260505051341 | 65 | 157 | 0.0 | 1.0 | 0.00 | 0.00 | 0.00 | 56 | 1009.0 |
| 20260505050834 | 65 | 162 | 0.0 | 1.0 | 0.00 | 0.00 | 0.00 | 56 | 1008.9 |
| 20260505050328 | 65 | 176 | 0.0 | 0.0 | 0.00 | 0.00 | 0.00 | 55 | 1008.9 |
| 20260505041739 | 66 | 213 | 0.0 | 1.0 | 0.00 | 0.00 | 0.00 | 52 | 1008.5 |
| 20260505041241 | 66 | 165 | 0.0 | 1.0 | 0.00 | 0.00 | 0.00 | 52 | 1008.4 |
| 20260505040737 | 66 | 150 | 0.0 | 1.0 | 0.00 | 0.00 | 0.00 | 53 | 1008.4 |
| 20260505040237 | 66 | 150 | 0.0 | 1.0 | 0.00 | 0.00 | 0.00 | 52 | 1008.3 |
| 20260505040000 | 66 | 36 | 0.0 | 1.0 | 0.00 | 0.00 | 0.00 | 53 | 1008.3 |
| 20260505035233 | 65 | 217 | 0.0 | 1.0 | 0.00 | 0.00 | 0.00 | 53 | 1008.3 |
| 20260505034732 | 65 | 217 | 0.0 | 1.0 | 0.00 | 0.00 | 0.00 | 53 | 1008.3 |
| 20260505034233 | 66 | 216 | 0.0 | 1.0 | 0.00 | 0.00 | 0.00 | 53 | 1008.3 |
| 20260505033729 | 66 | 216 | 0.0 | 1.0 | 0.00 | 0.00 | 0.00 | 53 | 1008.4 |
| 20260505033504 | 66 | 155 | 0.0 | 0.0 | 0.00 | 0.00 | 0.00 | 53 | 1008.4 |
| 20260505033218 | 66 | 154 | 0.0 | 0.0 | 0.00 | 0.00 | 0.00 | 53 | 1008.4 |
| 20260505032453 | 66 | 155 | 0.0 | 0.0 | 0.00 | 0.00 | 0.00 | 53 | 1008.3 |